| time (UTC) | temp C | wind direction | speed KPH | gust KPH | rain 1hr cm | rain 24hr cm | rain mn cm | humidity % | barometer mb |
| 20260831171053 | 30 | 0 | 1.6 | 4.8 | 0.00 | 0.00 | 0.00 | 65 | 1022.2 |
| 20260831170553 | 30 | 0 | 0.0 | 8.0 | 0.00 | 0.00 | 0.00 | 67 | 1022.3 |
| 20260831165553 | 30 | 242 | 1.6 | 6.4 | 0.00 | 0.00 | 0.00 | 66 | 1022.4 |
| 20260831165053 | 30 | 344 | 1.6 | 6.4 | 0.00 | 0.00 | 0.00 | 67 | 1022.6 |
| 20260831164601 | 30 | 228 | 1.6 | 4.8 | 0.00 | 0.00 | 0.00 | 68 | 1022.7 |
| 20260831164052 | 30 | 0 | 0.0 | 4.8 | 0.00 | 0.00 | 0.00 | 68 | 1022.8 |
| 20260831163553 | 30 | 0 | 1.6 | 4.8 | 0.00 | 0.00 | 0.00 | 69 | 1022.7 |
| 20260831163105 | 30 | 294 | 0.0 | 4.8 | 0.00 | 0.00 | 0.00 | 70 | 1022.9 |
| 20260831162554 | 30 | 0 | 1.6 | 8.0 | 0.00 | 0.00 | 0.00 | 68 | 1022.9 |
| 20260831162055 | 30 | 0 | 3.2 | 8.0 | 0.00 | 0.00 | 0.00 | 70 | 1023.0 |
| 20260831161606 | 29 | 83 | 0.0 | 4.8 | 0.00 | 0.00 | 0.00 | 71 | 1023.0 |
| 20260831161053 | 29 | 0 | 0.0 | 3.2 | 0.00 | 0.00 | 0.00 | 72 | 1022.9 |
| 20260831160554 | 29 | 0 | 0.0 | 6.4 | 0.00 | 0.00 | 0.00 | 70 | 1023.0 |
| 20260831160108 | 29 | 0 | 1.6 | 6.4 | 0.00 | 0.00 | 0.00 | 72 | 1023.0 |
| 20260831155553 | 29 | 225 | 0.0 | 6.4 | 0.00 | 0.00 | 0.00 | 73 | 1023.0 |
| 20260831155055 | 29 | 213 | 1.6 | 6.4 | 0.00 | 0.00 | 0.00 | 72 | 1023.2 |
| 20260831154635 | 29 | 269 | 0.0 | 4.8 | 0.00 | 0.00 | 0.00 | 72 | 1023.1 |
| 20260831154055 | 29 | 271 | 0.0 | 6.4 | 0.00 | 0.00 | 0.00 | 72 | 1023.1 |
| 20260831153552 | 29 | 244 | 1.6 | 6.4 | 0.00 | 0.00 | 0.00 | 71 | 1023.2 |
| 20260831153110 | 29 | 219 | 0.0 | 4.8 | 0.00 | 0.00 | 0.00 | 71 | 1023.1 |
| 20260831152554 | 29 | 0 | 0.0 | 6.4 | 0.00 | 0.00 | 0.00 | 72 | 1023.1 |
| 20260831152053 | 29 | 0 | 0.0 | 6.4 | 0.00 | 0.00 | 0.00 | 72 | 1023.1 |
| 20260831151605 | 29 | 108 | 1.6 | 4.8 | 0.00 | 0.00 | 0.00 | 72 | 1023.1 |
| 20260831151053 | 28 | 0 | 0.0 | 4.8 | 0.00 | 0.00 | 0.00 | 74 | 1023.2 |
| 20260831150552 | 28 | 0 | 0.0 | 3.2 | 0.00 | 0.00 | 0.00 | 74 | 1023.2 |
| 20260831150113 | 28 | 0 | 0.0 | 8.0 | 0.00 | 0.00 | 0.00 | 75 | 1023.4 |
| 20260831145552 | 28 | 0 | 1.6 | 8.0 | 0.00 | 0.00 | 0.00 | 74 | 1023.3 |
| 20260831145056 | 28 | 0 | 0.0 | 3.2 | 0.00 | 0.00 | 0.00 | 76 | 1023.5 |
| 20260831144608 | 27 | 247 | 0.0 | 3.2 | 0.00 | 0.00 | 0.00 | 77 | 1023.5 |
| 20260831144053 | 27 | 0 | 0.0 | 3.2 | 0.00 | 0.00 | 0.00 | 76 | 1023.3 |
| 20260831143553 | 27 | 247 | 0.0 | 3.2 | 0.00 | 0.00 | 0.00 | 77 | 1023.4 |
| 20260831143108 | 27 | 0 | 0.0 | 3.2 | 0.00 | 0.00 | 0.00 | 76 | 1023.3 |
| 20260831142554 | 27 | 0 | 0.0 | 3.2 | 0.00 | 0.00 | 0.00 | 77 | 1023.2 |
| 20260831142055 | 27 | 0 | 0.0 | 3.2 | 0.00 | 0.00 | 0.00 | 78 | 1023.3 |
| 20260831141611 | 27 | 0 | 0.0 | 1.6 | 0.00 | 0.00 | 0.00 | 79 | 1023.2 |
| 20260831141055 | 26 | 0 | 0.0 | 1.6 | 0.00 | 0.00 | 0.00 | 80 | 1023.1 |
| 20260831140552 | 26 | 0 | 0.0 | 1.6 | 0.00 | 0.00 | 0.00 | 80 | 1023.1 |
| 20260831140101 | 26 | 0 | 0.0 | 3.2 | 0.00 | 0.00 | 0.00 | 81 | 1023.2 |
| 20260831135557 | 25 | 0 | 0.0 | 3.2 | 0.00 | 0.00 | 0.00 | 82 | 1023.1 |
| 20260831135053 | 25 | 293 | 0.0 | 3.2 | 0.00 | 0.00 | 0.00 | 82 | 1023.1 |
| 20260831134606 | 25 | 0 | 0.0 | 1.6 | 0.00 | 0.00 | 0.00 | 84 | 1023.1 |
| 20260831134053 | 25 | 0 | 0.0 | 1.6 | 0.00 | 0.00 | 0.00 | 83 | 1023.1 |
| 20260831133554 | 25 | 0 | 0.0 | 0.0 | 0.00 | 0.00 | 0.00 | 83 | 1023.1 |
| 20260831133108 | 24 | 0 | 0.0 | 0.0 | 0.00 | 0.00 | 0.00 | 84 | 1023.2 |
| 20260831132553 | 24 | 0 | 0.0 | 0.0 | 0.00 | 0.00 | 0.00 | 85 | 1023.2 |
| 20260831132053 | 24 | 0 | 0.0 | 0.0 | 0.00 | 0.00 | 0.00 | 86 | 1023.0 |
| 20260831131605 | 23 | 0 | 0.0 | 0.0 | 0.00 | 0.00 | 0.00 | 87 | 1023.0 |
| 20260831131052 | 23 | 0 | 0.0 | 0.0 | 0.00 | 0.00 | 0.00 | 88 | 1022.9 |
| 20260831130553 | 23 | 0 | 0.0 | 0.0 | 0.00 | 0.00 | 0.00 | 89 | 1023.0 |
| 20260831130104 | 23 | 0 | 0.0 | 0.0 | 0.00 | 0.00 | 0.00 | 90 | 1022.9 |
| 20260831125553 | 23 | 0 | 0.0 | 0.0 | 0.00 | 0.00 | 0.00 | 91 | 1022.8 |
| 20260831125052 | 22 | 0 | 0.0 | 0.0 | 0.00 | 0.00 | 0.00 | 91 | 1022.8 |
| 20260831124604 | 22 | 0 | 0.0 | 0.0 | 0.00 | 0.00 | 0.00 | 91 | 1022.8 |
| 20260831124052 | 22 | 0 | 0.0 | 1.6 | 0.00 | 0.00 | 0.00 | 91 | 1022.8 |
| 20260831123552 | 22 | 0 | 0.0 | 1.6 | 0.00 | 0.00 | 0.00 | 92 | 1022.8 |
| 20260831123104 | 22 | 0 | 0.0 | 0.0 | 0.00 | 0.00 | 0.00 | 91 | 1022.7 |
| 20260831122557 | 22 | 0 | 0.0 | 3.2 | 0.00 | 0.00 | 0.00 | 92 | 1022.7 |
| 20260831122052 | 22 | 0 | 0.0 | 4.8 | 0.00 | 0.00 | 0.00 | 92 | 1022.6 |
| 20260831121601 | 22 | 360 | 0.0 | 4.8 | 0.00 | 0.00 | 0.00 | 92 | 1022.6 |
| 20260831121057 | 21 | 360 | 0.0 | 3.2 | 0.00 | 0.00 | 0.00 | 92 | 1022.5 |
| 20260831120553 | 21 | 0 | 0.0 | 0.0 | 0.00 | 0.00 | 0.00 | 92 | 1022.5 |
| 20260831120129 | 21 | 0 | 0.0 | 0.0 | 0.00 | 0.00 | 0.00 | 92 | 1022.4 |
| 20260831115553 | 21 | 0 | 0.0 | 0.0 | 0.00 | 0.00 | 0.00 | 92 | 1022.5 |
| 20260831115056 | 21 | 0 | 0.0 | 0.0 | 0.00 | 0.00 | 0.00 | 92 | 1022.4 |
| 20260831114612 | 21 | 0 | 0.0 | 0.0 | 0.00 | 0.00 | 0.00 | 91 | 1022.5 |
| 20260831114053 | 21 | 0 | 0.0 | 0.0 | 0.00 | 0.00 | 0.00 | 91 | 1022.4 |
| 20260831113553 | 21 | 0 | 0.0 | 0.0 | 0.00 | 0.00 | 0.00 | 91 | 1022.3 |
| 20260831113107 | 21 | 0 | 0.0 | 0.0 | 0.00 | 0.00 | 0.00 | 92 | 1022.2 |
| 20260831112555 | 21 | 0 | 0.0 | 0.0 | 0.00 | 0.00 | 0.00 | 91 | 1022.2 |
| 20260831112052 | 21 | 0 | 0.0 | 0.0 | 0.00 | 0.00 | 0.00 | 91 | 1022.2 |
| 20260831111614 | 21 | 0 | 0.0 | 0.0 | 0.00 | 0.00 | 0.00 | 91 | 1022.2 |
| 20260831111052 | 21 | 0 | 0.0 | 0.0 | 0.00 | 0.00 | 0.00 | 91 | 1022.1 |
| 20260831110552 | 21 | 0 | 0.0 | 0.0 | 0.00 | 0.00 | 0.00 | 91 | 1022.0 |
| 20260831110104 | 21 | 0 | 0.0 | 0.0 | 0.00 | 0.00 | 0.00 | 91 | 1022.0 |
| 20260831105553 | 21 | 0 | 0.0 | 0.0 | 0.00 | 0.00 | 0.00 | 91 | 1021.8 |
| 20260831105053 | 21 | 0 | 0.0 | 0.0 | 0.00 | 0.00 | 0.00 | 91 | 1021.8 |
| 20260831104605 | 21 | 0 | 0.0 | 0.0 | 0.00 | 0.00 | 0.00 | 91 | 1021.7 |
| 20260831104053 | 21 | 0 | 0.0 | 0.0 | 0.00 | 0.00 | 0.00 | 91 | 1021.8 |
| 20260831103552 | 21 | 0 | 0.0 | 0.0 | 0.00 | 0.00 | 0.00 | 91 | 1021.6 |
| 20260831103107 | 21 | 0 | 0.0 | 0.0 | 0.00 | 0.00 | 0.00 | 91 | 1021.6 |
| 20260831102553 | 21 | 0 | 0.0 | 0.0 | 0.00 | 0.00 | 0.00 | 90 | 1021.7 |
| 20260831102053 | 22 | 0 | 0.0 | 0.0 | 0.00 | 0.00 | 0.00 | 91 | 1021.6 |
| 20260831101605 | 22 | 0 | 0.0 | 0.0 | 0.00 | 0.00 | 0.00 | 90 | 1021.6 |
| 20260831101053 | 22 | 0 | 0.0 | 0.0 | 0.00 | 0.00 | 0.00 | 90 | 1021.5 |
| 20260831100556 | 22 | 0 | 0.0 | 0.0 | 0.00 | 0.00 | 0.00 | 90 | 1021.4 |
| 20260831100114 | 22 | 0 | 0.0 | 0.0 | 0.00 | 0.00 | 0.00 | 90 | 1021.3 |
| 20260831095557 | 22 | 0 | 0.0 | 0.0 | 0.00 | 0.00 | 0.00 | 90 | 1021.4 |
| 20260831095053 | 22 | 0 | 0.0 | 0.0 | 0.00 | 0.00 | 0.00 | 90 | 1021.3 |
| 20260831094605 | 22 | 0 | 0.0 | 0.0 | 0.00 | 0.00 | 0.00 | 90 | 1021.4 |
| 20260831094054 | 22 | 0 | 0.0 | 0.0 | 0.00 | 0.00 | 0.00 | 90 | 1021.3 |
| 20260831093554 | 22 | 0 | 0.0 | 0.0 | 0.00 | 0.00 | 0.00 | 90 | 1021.1 |
| 20260831093106 | 22 | 0 | 0.0 | 0.0 | 0.00 | 0.00 | 0.00 | 90 | 1021.3 |
| 20260831092552 | 22 | 0 | 0.0 | 0.0 | 0.00 | 0.00 | 0.00 | 90 | 1021.1 |
| 20260831092053 | 22 | 0 | 0.0 | 0.0 | 0.00 | 0.00 | 0.00 | 90 | 1021.1 |
| 20260831091605 | 22 | 0 | 0.0 | 0.0 | 0.00 | 0.00 | 0.00 | 90 | 1021.0 |
| 20260831091052 | 22 | 0 | 0.0 | 0.0 | 0.00 | 0.00 | 0.00 | 90 | 1021.0 |
| 20260831090553 | 22 | 0 | 0.0 | 0.0 | 0.00 | 0.00 | 0.00 | 89 | 1020.9 |
| 20260831090109 | 22 | 0 | 0.0 | 0.0 | 0.00 | 0.00 | 0.00 | 89 | 1021.1 |
| 20260831085557 | 22 | 0 | 0.0 | 0.0 | 0.00 | 0.00 | 0.00 | 89 | 1021.0 |
| 20260831085052 | 22 | 0 | 0.0 | 0.0 | 0.00 | 0.00 | 0.00 | 89 | 1021.0 |
| 20260831084609 | 22 | 0 | 0.0 | 0.0 | 0.00 | 0.00 | 0.00 | 89 | 1020.8 |
| 20260831084052 | 22 | 0 | 0.0 | 0.0 | 0.00 | 0.00 | 0.00 | 89 | 1021.0 |
| 20260831083553 | 22 | 0 | 0.0 | 0.0 | 0.00 | 0.00 | 0.00 | 89 | 1021.0 |
| 20260831083106 | 22 | 0 | 0.0 | 0.0 | 0.00 | 0.00 | 0.00 | 89 | 1021.0 |
| 20260831082556 | 22 | 0 | 0.0 | 0.0 | 0.00 | 0.00 | 0.00 | 89 | 1020.9 |
| 20260831082053 | 22 | 0 | 0.0 | 0.0 | 0.00 | 0.00 | 0.00 | 89 | 1021.0 |
| 20260831081605 | 22 | 0 | 0.0 | 0.0 | 0.00 | 0.00 | 0.00 | 88 | 1020.9 |
| 20260831081052 | 22 | 0 | 0.0 | 0.0 | 0.00 | 0.00 | 0.00 | 88 | 1021.0 |
| 20260831080552 | 22 | 0 | 0.0 | 0.0 | 0.00 | 0.00 | 0.00 | 88 | 1021.0 |
| 20260831080138 | 22 | 0 | 0.0 | 0.0 | 0.00 | 0.00 | 0.00 | 87 | 1021.0 |
| 20260831075552 | 22 | 0 | 0.0 | 0.0 | 0.00 | 0.00 | 0.00 | 88 | 1021.0 |
| 20260831075055 | 23 | 0 | 0.0 | 0.0 | 0.00 | 0.00 | 0.00 | 88 | 1020.9 |
| 20260831074607 | 23 | 0 | 0.0 | 0.0 | 0.00 | 0.00 | 0.00 | 87 | 1020.9 |
| 20260831074053 | 23 | 0 | 0.0 | 0.0 | 0.00 | 0.00 | 0.00 | 87 | 1020.8 |
| 20260831073555 | 23 | 0 | 0.0 | 0.0 | 0.00 | 0.00 | 0.00 | 87 | 1020.9 |
| 20260831073117 | 23 | 0 | 0.0 | 0.0 | 0.00 | 0.00 | 0.00 | 87 | 1020.9 |
| 20260831072552 | 23 | 0 | 0.0 | 0.0 | 0.00 | 0.00 | 0.00 | 87 | 1020.9 |
| 20260831072053 | 23 | 0 | 0.0 | 0.0 | 0.00 | 0.00 | 0.00 | 87 | 1020.9 |
| 20260831071602 | 23 | 0 | 0.0 | 0.0 | 0.00 | 0.00 | 0.00 | 87 | 1020.8 |
| 20260831071053 | 23 | 0 | 0.0 | 0.0 | 0.00 | 0.00 | 0.00 | 86 | 1021.0 |
| 20260831070552 | 23 | 0 | 0.0 | 0.0 | 0.00 | 0.00 | 0.00 | 87 | 1020.9 |
| 20260831065550 | 23 | 0 | 0.0 | 0.0 | 0.00 | 0.00 | 0.00 | 86 | 1021.0 |
| 20260831065052 | 23 | 0 | 0.0 | 0.0 | 0.00 | 0.00 | 0.00 | 86 | 1021.0 |
| 20260831064611 | 23 | 0 | 0.0 | 0.0 | 0.00 | 0.00 | 0.00 | 86 | 1021.1 |
| 20260831064052 | 23 | 0 | 0.0 | 0.0 | 0.00 | 0.00 | 0.00 | 85 | 1021.0 |
| 20260831063555 | 23 | 0 | 0.0 | 0.0 | 0.00 | 0.00 | 0.00 | 85 | 1021.0 |
| 20260831063107 | 23 | 0 | 0.0 | 0.0 | 0.00 | 0.00 | 0.00 | 85 | 1021.1 |
| 20260831062553 | 23 | 0 | 0.0 | 0.0 | 0.00 | 0.00 | 0.00 | 85 | 1021.0 |
| 20260831062053 | 23 | 0 | 0.0 | 0.0 | 0.00 | 0.00 | 0.00 | 85 | 1021.0 |
| 20260831061608 | 23 | 0 | 0.0 | 0.0 | 0.00 | 0.00 | 0.00 | 85 | 1021.0 |
| 20260831061054 | 23 | 0 | 0.0 | 0.0 | 0.00 | 0.00 | 0.00 | 85 | 1021.1 |
| 20260831060552 | 24 | 0 | 0.0 | 0.0 | 0.00 | 0.00 | 0.00 | 85 | 1021.0 |
| 20260831060109 | 24 | 0 | 0.0 | 0.0 | 0.00 | 0.00 | 0.00 | 85 | 1021.0 |
| 20260831055552 | 24 | 0 | 0.0 | 0.0 | 0.00 | 0.00 | 0.00 | 85 | 1021.0 |
| 20260831055053 | 24 | 0 | 0.0 | 0.0 | 0.00 | 0.00 | 0.00 | 85 | 1021.1 |
| 20260831054601 | 24 | 0 | 0.0 | 0.0 | 0.00 | 0.00 | 0.00 | 84 | 1021.0 |
| 20260831054052 | 24 | 0 | 0.0 | 0.0 | 0.00 | 0.00 | 0.00 | 84 | 1021.0 |
| 20260831053552 | 24 | 0 | 0.0 | 0.0 | 0.00 | 0.00 | 0.00 | 84 | 1021.1 |
| 20260831053110 | 24 | 0 | 0.0 | 0.0 | 0.00 | 0.00 | 0.00 | 84 | 1021.0 |
| 20260831052552 | 25 | 0 | 0.0 | 0.0 | 0.00 | 0.00 | 0.00 | 84 | 1021.0 |
| 20260831052054 | 25 | 0 | 0.0 | 0.0 | 0.00 | 0.00 | 0.00 | 84 | 1021.1 |
| 20260831051604 | 25 | 0 | 0.0 | 0.0 | 0.00 | 0.00 | 0.00 | 84 | 1021.1 |
| 20260831051052 | 25 | 0 | 0.0 | 0.0 | 0.00 | 0.00 | 0.00 | 84 | 1021.1 |
| 20260831050556 | 25 | 0 | 0.0 | 0.0 | 0.00 | 0.00 | 0.00 | 83 | 1021.0 |
| 20260831050117 | 25 | 0 | 0.0 | 0.0 | 0.00 | 0.00 | 0.00 | 83 | 1021.0 |
| 20260831045555 | 25 | 0 | 0.0 | 3.2 | 0.00 | 0.00 | 0.00 | 83 | 1021.0 |
| 20260831045052 | 25 | 0 | 0.0 | 3.2 | 0.00 | 0.00 | 0.00 | 83 | 1021.0 |
| 20260831044606 | 25 | 360 | 0.0 | 3.2 | 0.00 | 0.00 | 0.00 | 83 | 1021.0 |
| 20260831044052 | 25 | 0 | 0.0 | 0.0 | 0.00 | 0.00 | 0.00 | 82 | 1021.0 |
| 20260831043553 | 25 | 0 | 0.0 | 0.0 | 0.00 | 0.00 | 0.00 | 82 | 1021.2 |
| 20260831043106 | 25 | 0 | 0.0 | 0.0 | 0.00 | 0.00 | 0.00 | 81 | 1021.0 |
| 20260831042552 | 25 | 0 | 0.0 | 0.0 | 0.00 | 0.00 | 0.00 | 81 | 1021.0 |
| 20260831042052 | 25 | 0 | 0.0 | 0.0 | 0.00 | 0.00 | 0.00 | 81 | 1021.0 |
| 20260831041611 | 25 | 0 | 0.0 | 0.0 | 0.00 | 0.00 | 0.00 | 81 | 1021.1 |
| 20260831041054 | 25 | 0 | 0.0 | 0.0 | 0.00 | 0.00 | 0.00 | 81 | 1021.1 |
| 20260831040552 | 25 | 0 | 0.0 | 0.0 | 0.00 | 0.00 | 0.00 | 81 | 1021.0 |
| 20260831040110 | 25 | 0 | 0.0 | 1.6 | 0.00 | 0.00 | 0.00 | 80 | 1021.0 |
| 20260831035555 | 25 | 0 | 0.0 | 1.6 | 0.00 | 0.00 | 0.00 | 80 | 1021.0 |
| 20260831035051 | 25 | 0 | 0.0 | 0.0 | 0.00 | 0.00 | 0.00 | 80 | 1021.1 |
| 20260831034609 | 25 | 0 | 0.0 | 0.0 | 0.00 | 0.00 | 0.00 | 80 | 1021.0 |
| 20260831034052 | 25 | 0 | 0.0 | 0.0 | 0.00 | 0.00 | 0.00 | 80 | 1021.1 |
| 20260831033554 | 25 | 0 | 0.0 | 1.6 | 0.00 | 0.00 | 0.00 | 80 | 1021.1 |
| 20260831033111 | 26 | 0 | 0.0 | 1.6 | 0.00 | 0.00 | 0.00 | 79 | 1021.0 |
| 20260831032552 | 26 | 0 | 0.0 | 0.0 | 0.00 | 0.00 | 0.00 | 79 | 1021.1 |
| 20260831032052 | 26 | 0 | 0.0 | 0.0 | 0.00 | 0.00 | 0.00 | 79 | 1021.0 |
| 20260831031605 | 26 | 0 | 0.0 | 0.0 | 0.00 | 0.00 | 0.00 | 78 | 1020.9 |
| 20260831031051 | 26 | 0 | 0.0 | 0.0 | 0.00 | 0.00 | 0.00 | 78 | 1021.1 |
| 20260831030553 | 26 | 0 | 0.0 | 0.0 | 0.00 | 0.00 | 0.00 | 78 | 1021.2 |
| 20260831030103 | 26 | 0 | 0.0 | 0.0 | 0.00 | 0.00 | 0.00 | 78 | 1021.2 |
| 20260831025549 | 26 | 0 | 0.0 | 0.0 | 0.00 | 0.00 | 0.00 | 77 | 1021.1 |
| 20260831025053 | 26 | 0 | 0.0 | 0.0 | 0.00 | 0.00 | 0.00 | 77 | 1021.2 |
| 20260831024609 | 26 | 0 | 0.0 | 0.0 | 0.00 | 0.00 | 0.00 | 76 | 1021.2 |
| 20260831024051 | 26 | 0 | 0.0 | 0.0 | 0.00 | 0.00 | 0.00 | 76 | 1021.0 |
| 20260831023552 | 26 | 0 | 0.0 | 0.0 | 0.00 | 0.00 | 0.00 | 76 | 1021.0 |
| 20260831023108 | 26 | 0 | 0.0 | 1.6 | 0.00 | 0.00 | 0.00 | 75 | 1021.0 |
| 20260831022555 | 26 | 0 | 0.0 | 1.6 | 0.00 | 0.00 | 0.00 | 75 | 1021.2 |
| 20260831022055 | 27 | 0 | 0.0 | 1.6 | 0.00 | 0.00 | 0.00 | 75 | 1021.0 |
| 20260831021606 | 27 | 0 | 0.0 | 1.6 | 0.00 | 0.00 | 0.00 | 75 | 1020.9 |
| 20260831021056 | 27 | 0 | 0.0 | 1.6 | 0.00 | 0.00 | 0.00 | 75 | 1020.9 |
| 20260831020553 | 27 | 0 | 0.0 | 1.6 | 0.00 | 0.00 | 0.00 | 75 | 1020.9 |
| 20260831020108 | 27 | 0 | 0.0 | 0.0 | 0.00 | 0.00 | 0.00 | 74 | 1020.8 |
| 20260831015552 | 27 | 0 | 0.0 | 0.0 | 0.00 | 0.00 | 0.00 | 75 | 1020.7 |
| 20260831015052 | 27 | 0 | 0.0 | 0.0 | 0.00 | 0.00 | 0.00 | 74 | 1020.7 |
| 20260831014603 | 27 | 0 | 0.0 | 0.0 | 0.00 | 0.00 | 0.00 | 73 | 1020.6 |
| 20260831014052 | 27 | 0 | 0.0 | 1.6 | 0.00 | 0.00 | 0.00 | 73 | 1020.5 |
| 20260831013553 | 27 | 0 | 0.0 | 1.6 | 0.00 | 0.00 | 0.00 | 73 | 1020.5 |
| 20260831013115 | 27 | 0 | 0.0 | 3.2 | 0.00 | 0.00 | 0.00 | 72 | 1020.4 |
| 20260831012551 | 27 | 0 | 0.0 | 3.2 | 0.00 | 0.00 | 0.00 | 72 | 1020.3 |
| 20260831012057 | 28 | 360 | 0.0 | 1.6 | 0.00 | 0.00 | 0.00 | 71 | 1020.2 |
| 20260831011605 | 28 | 0 | 0.0 | 0.0 | 0.00 | 0.00 | 0.00 | 71 | 1020.2 |
| 20260831011052 | 28 | 0 | 0.0 | 0.0 | 0.00 | 0.00 | 0.00 | 71 | 1020.1 |
| 20260831010552 | 28 | 0 | 0.0 | 0.0 | 0.00 | 0.00 | 0.00 | 71 | 1020.2 |
| 20260831010128 | 28 | 0 | 0.0 | 0.0 | 0.00 | 0.00 | 0.00 | 70 | 1020.2 |
| 20260831005552 | 28 | 0 | 0.0 | 0.0 | 0.00 | 0.00 | 0.00 | 70 | 1020.0 |
| 20260831005049 | 28 | 0 | 0.0 | 0.0 | 0.00 | 0.00 | 0.00 | 70 | 1020.1 |
| 20260831004611 | 28 | 0 | 0.0 | 3.2 | 0.00 | 0.00 | 0.00 | 69 | 1020.1 |
| 20260831004058 | 28 | 0 | 0.0 | 3.2 | 0.00 | 0.00 | 0.00 | 69 | 1020.1 |
| 20260831003551 | 29 | 0 | 0.0 | 3.2 | 0.00 | 0.00 | 0.00 | 69 | 1020.0 |
| 20260831003108 | 29 | 0 | 0.0 | 1.6 | 0.00 | 0.00 | 0.00 | 68 | 1019.9 |
| 20260831002549 | 29 | 0 | 0.0 | 0.0 | 0.00 | 0.00 | 0.00 | 68 | 1020.0 |
| 20260831002051 | 29 | 0 | 0.0 | 0.0 | 0.00 | 0.00 | 0.00 | 68 | 1019.8 |
| 20260831001602 | 30 | 0 | 0.0 | 0.0 | 0.00 | 0.00 | 0.00 | 67 | 1019.9 |
| 20260831001049 | 30 | 0 | 0.0 | 1.6 | 0.00 | 0.00 | 0.00 | 67 | 1019.8 |
| 20260831000549 | 30 | 0 | 0.0 | 1.6 | 0.00 | 0.00 | 0.00 | 66 | 1019.8 |
| 20260831000108 | 30 | 0 | 0.0 | 6.4 | 0.00 | 0.00 | 0.00 | 66 | 1019.9 |
| 20260830235552 | 30 | 0 | 0.0 | 6.4 | 0.00 | 0.00 | 0.00 | 65 | 1019.9 |
| 20260830235052 | 30 | 360 | 1.6 | 6.4 | 0.00 | 0.00 | 0.00 | 65 | 1019.8 |
| 20260830234608 | 30 | 0 | 1.6 | 6.4 | 0.00 | 0.00 | 0.00 | 65 | 1019.9 |
| 20260830234051 | 31 | 0 | 1.6 | 6.4 | 0.00 | 0.00 | 0.00 | 64 | 1019.9 |
| 20260830233552 | 31 | 0 | 1.6 | 6.4 | 0.00 | 0.00 | 0.00 | 64 | 1019.9 |
| 20260830233106 | 31 | 360 | 1.6 | 6.4 | 0.00 | 0.00 | 0.00 | 63 | 1019.8 |
| 20260830232551 | 31 | 360 | 1.6 | 6.4 | 0.00 | 0.00 | 0.00 | 63 | 1019.8 |
| 20260830232049 | 31 | 360 | 1.6 | 8.0 | 0.00 | 0.00 | 0.00 | 63 | 1019.9 |
| 20260830231602 | 31 | 360 | 3.2 | 8.0 | 0.00 | 0.00 | 0.00 | 62 | 1019.8 |
| 20260830231052 | 31 | 360 | 0.0 | 9.7 | 0.00 | 0.00 | 0.00 | 62 | 1019.7 |
| 20260830230552 | 31 | 0 | 3.2 | 9.7 | 0.00 | 0.00 | 0.00 | 62 | 1019.8 |
| 20260830230106 | 31 | 360 | 1.6 | 6.4 | 0.00 | 0.00 | 0.00 | 62 | 1019.8 |
| 20260830225552 | 31 | 0 | 1.6 | 6.4 | 0.00 | 0.00 | 0.00 | 62 | 1019.8 |
| 20260830225052 | 32 | 0 | 0.0 | 3.2 | 0.00 | 0.00 | 0.00 | 61 | 1019.7 |
| 20260830224608 | 32 | 0 | 0.0 | 6.4 | 0.00 | 0.00 | 0.00 | 61 | 1019.8 |
| 20260830224049 | 32 | 0 | 0.0 | 6.4 | 0.00 | 0.00 | 0.00 | 59 | 1019.6 |
| 20260830223552 | 32 | 360 | 0.0 | 4.8 | 0.00 | 0.00 | 0.00 | 58 | 1019.7 |
| 20260830223105 | 32 | 0 | 0.0 | 4.8 | 0.00 | 0.00 | 0.00 | 58 | 1019.8 |
| 20260830222552 | 32 | 0 | 0.0 | 4.8 | 0.00 | 0.00 | 0.00 | 56 | 1019.9 |
| 20260830222052 | 32 | 0 | 1.6 | 4.8 | 0.00 | 0.00 | 0.00 | 56 | 1019.8 |
| 20260830221608 | 33 | 0 | 0.0 | 3.2 | 0.00 | 0.00 | 0.00 | 56 | 1019.7 |
| 20260830221052 | 33 | 0 | 0.0 | 3.2 | 0.00 | 0.00 | 0.00 | 56 | 1019.8 |
| 20260830220552 | 33 | 0 | 0.0 | 3.2 | 0.00 | 0.00 | 0.00 | 57 | 1019.8 |
| 20260830220115 | 33 | 0 | 0.0 | 4.8 | 0.00 | 0.00 | 0.00 | 57 | 1019.9 |
| 20260830215556 | 32 | 0 | 1.6 | 4.8 | 0.00 | 0.00 | 0.00 | 56 | 1019.8 |
| 20260830215052 | 32 | 360 | 0.0 | 1.6 | 0.00 | 0.00 | 0.00 | 56 | 1019.8 |
| 20260830214606 | 32 | 0 | 0.0 | 3.2 | 0.00 | 0.00 | 0.00 | 57 | 1019.8 |
| 20260830214052 | 32 | 0 | 0.0 | 9.7 | 0.00 | 0.00 | 0.00 | 57 | 1019.9 |
| 20260830213554 | 32 | 0 | 0.0 | 9.7 | 0.00 | 0.00 | 0.00 | 56 | 1019.8 |
| 20260830213107 | 32 | 360 | 1.6 | 8.0 | 0.00 | 0.00 | 0.00 | 55 | 1019.8 |
| 20260830212551 | 32 | 360 | 1.6 | 9.7 | 0.00 | 0.00 | 0.00 | 57 | 1019.9 |
| 20260830212053 | 32 | 0 | 1.6 | 9.7 | 0.00 | 0.00 | 0.00 | 56 | 1019.9 |
| 20260830211602 | 32 | 360 | 1.6 | 9.7 | 0.00 | 0.00 | 0.00 | 56 | 1019.9 |
| 20260830211052 | 32 | 360 | 4.8 | 12.9 | 0.00 | 0.00 | 0.00 | 56 | 1020.0 |
| 20260830210551 | 32 | 360 | 1.6 | 12.9 | 0.00 | 0.00 | 0.00 | 56 | 1020.0 |
| 20260830210100 | 32 | 360 | 0.0 | 6.4 | 0.00 | 0.00 | 0.00 | 57 | 1020.0 |
| 20260830205551 | 32 | 0 | 0.0 | 6.4 | 0.00 | 0.00 | 0.00 | 59 | 1020.0 |
| 20260830205051 | 32 | 360 | 0.0 | 6.4 | 0.00 | 0.00 | 0.00 | 59 | 1019.9 |
| 20260830204605 | 32 | 360 | 1.6 | 6.4 | 0.00 | 0.00 | 0.00 | 59 | 1020.1 |
| 20260830204052 | 32 | 360 | 1.6 | 4.8 | 0.00 | 0.00 | 0.00 | 59 | 1020.1 |
| 20260830203552 | 32 | 0 | 0.0 | 3.2 | 0.00 | 0.00 | 0.00 | 58 | 1020.1 |
| 20260830203105 | 32 | 0 | 0.0 | 3.2 | 0.00 | 0.00 | 0.00 | 58 | 1020.3 |
| 20260830202552 | 32 | 360 | 1.6 | 4.8 | 0.00 | 0.00 | 0.00 | 59 | 1020.4 |
| 20260830202048 | 32 | 0 | 0.0 | 4.8 | 0.00 | 0.00 | 0.00 | 59 | 1020.4 |
| 20260830201603 | 32 | 0 | 0.0 | 6.4 | 0.00 | 0.00 | 0.00 | 60 | 1020.4 |
| 20260830201054 | 32 | 360 | 0.0 | 6.4 | 0.00 | 0.00 | 0.00 | 59 | 1020.5 |
| 20260830200551 | 32 | 360 | 0.0 | 9.7 | 0.00 | 0.00 | 0.00 | 59 | 1020.6 |
| 20260830200100 | 32 | 0 | 0.0 | 9.7 | 0.00 | 0.00 | 0.00 | 59 | 1020.6 |
| 20260830195552 | 32 | 360 | 1.6 | 9.7 | 0.00 | 0.00 | 0.00 | 59 | 1020.6 |
| 20260830195054 | 32 | 360 | 3.2 | 9.7 | 0.00 | 0.00 | 0.00 | 59 | 1020.6 |
| 20260830194614 | 32 | 360 | 1.6 | 6.4 | 0.00 | 0.00 | 0.00 | 60 | 1020.8 |
| 20260830194052 | 32 | 360 | 1.6 | 6.4 | 0.00 | 0.00 | 0.00 | 62 | 1020.8 |
| 20260830193554 | 32 | 360 | 1.6 | 6.4 | 0.00 | 0.00 | 0.00 | 62 | 1020.8 |
| 20260830193105 | 32 | 360 | 0.0 | 4.8 | 0.00 | 0.00 | 0.00 | 61 | 1020.9 |
| 20260830192548 | 31 | 0 | 0.0 | 3.2 | 0.00 | 0.00 | 0.00 | 61 | 1021.0 |
| 20260830192050 | 31 | 360 | 0.0 | 6.4 | 0.00 | 0.00 | 0.00 | 61 | 1021.1 |
| 20260830191604 | 31 | 0 | 0.0 | 6.4 | 0.00 | 0.00 | 0.00 | 61 | 1021.2 |
| 20260830191049 | 31 | 360 | 1.6 | 4.8 | 0.00 | 0.00 | 0.00 | 63 | 1021.3 |
| 20260830190552 | 31 | 0 | 0.0 | 4.8 | 0.00 | 0.00 | 0.00 | 64 | 1021.3 |
| 20260830190104 | 31 | 360 | 0.0 | 4.8 | 0.00 | 0.00 | 0.00 | 63 | 1021.4 |
| 20260830185551 | 31 | 360 | 1.6 | 6.4 | 0.00 | 0.00 | 0.00 | 63 | 1021.5 |
| 20260830185053 | 31 | 0 | 1.6 | 8.0 | 0.00 | 0.00 | 0.00 | 64 | 1021.5 |
| 20260830184604 | 31 | 0 | 1.6 | 8.0 | 0.00 | 0.00 | 0.00 | 63 | 1021.6 |
| 20260830184051 | 31 | 360 | 3.2 | 9.7 | 0.00 | 0.00 | 0.00 | 64 | 1021.6 |
| 20260830183554 | 31 | 360 | 0.0 | 9.7 | 0.00 | 0.00 | 0.00 | 64 | 1021.7 |
| 20260830183101 | 31 | 360 | 4.8 | 9.7 | 0.00 | 0.00 | 0.00 | 64 | 1021.8 |
| 20260830182552 | 30 | 360 | 1.6 | 8.0 | 0.00 | 0.00 | 0.00 | 64 | 1022.1 |
| 20260830182052 | 30 | 360 | 1.6 | 9.7 | 0.00 | 0.00 | 0.00 | 64 | 1022.1 |
| 20260830181605 | 30 | 0 | 3.2 | 9.7 | 0.00 | 0.00 | 0.00 | 65 | 1022.1 |
| 20260830181054 | 30 | 360 | 3.2 | 6.4 | 0.00 | 0.00 | 0.00 | 65 | 1022.2 |
| 20260830180554 | 30 | 360 | 1.6 | 4.8 | 0.00 | 0.00 | 0.00 | 65 | 1022.3 |
| 20260830180104 | 30 | 360 | 1.6 | 4.8 | 0.00 | 0.00 | 0.00 | 66 | 1022.3 |
| 20260830175553 | 30 | 360 | 0.0 | 4.8 | 0.00 | 0.00 | 0.00 | 67 | 1022.5 |
| 20260830175053 | 30 | 0 | 1.6 | 4.8 | 0.00 | 0.00 | 0.00 | 67 | 1022.4 |
| 20260830174641 | 30 | 360 | 1.6 | 4.8 | 0.00 | 0.00 | 0.00 | 66 | 1022.5 |
| 20260830174053 | 30 | 360 | 1.6 | 4.8 | 0.00 | 0.00 | 0.00 | 68 | 1022.6 |
| 20260830173553 | 30 | 360 | 0.0 | 4.8 | 0.00 | 0.00 | 0.00 | 67 | 1022.6 |
| 20260830173104 | 30 | 360 | 0.0 | 4.8 | 0.00 | 0.00 | 0.00 | 68 | 1022.7 |
| 20260830172555 | 30 | 0 | 1.6 | 4.8 | 0.00 | 0.00 | 0.00 | 69 | 1022.8 |
| 20260830172054 | 30 | 0 | 0.0 | 8.0 | 0.00 | 0.00 | 0.00 | 68 | 1022.7 |
| 20260830171612 | 29 | 0 | 0.0 | 8.0 | 0.00 | 0.00 | 0.00 | 68 | 1022.8 |